Location: Unspecified
(0.0000°N, 0.0000°E)
Time: 01:13:59
(UTC+00:00)

SRMSAT - Pass Details

Date: 10 December 2017
Orbit: 849 x 866 km, 20.0° (Epoch: 15 January)

Event Time Altitude Azimuth Distance (km) Brightness Sun altitude
Exits shadow 02:53:45 24° 117° (ESE) 1,682 ? -40.4°
Drops below altitude 10° 02:56:36 10° 96° (E) 2,489 ? -39.8°
Sets 02:59:24 0° 87° (E) 3,427 ? -39.2°
